User: anonymous   Login
Location: Petruro
(41.0333°N, 14.7833°E)
Time: 00:37:06
(UTC+00:00)
Language:

Cosmos 1812 - Orbit

View from above orbital plane
View from above orbital plane
View from above satellite
View from above satellite

Ground track
Ground track

The orbit data is extracted from the following two-line orbital elements,

1 17295U 87003A   21259.50783985  .00001073  00000-0  54027-4 0  9999
2 17295  82.5132  55.9412 0004239 133.2848 226.8739 15.16156219893778
Epoch (UTC): 16 September 2021 12:11:17
Eccentricity: 0.0004239
inclination: 82.5132°
perigee height: 514 km
apogee height: 520 km
right ascension of ascending node: 55.9412°
argument of perigee: 133.2848°
revolutions per day: 15.16156219
mean anomaly at epoch: 226.8739°
orbit number at epoch: 89377

The dashed part of the orbit path shows where the satellite is in the earth's shadow,  

DLR